FENGYUN 3C

Last updated on Mon Jul 13 2026 00:02:45 GMT+0000 (Coordinated Universal Time)

1 39260U 13052A 26193.55689397 .00000024 00000+0 33155-4 0 9990 2 39260 98.4996 166.2690 0013785 314.0712 45.9327 14.15760405662152
UTC large
Height (km)
Speed (km/s)
/
Latitude / Longitude
Inclination (degrees)
Orbital Period (minutes)
Azimuth
Elevation
Range (km)
Doppler Factor

Next 0 passes for location: London (51.5072 / 0.1276)

No passes found over London.
FENGYUN 3C